Location: Gaast
(52.9002°N, 5.8891°E)
Time: 23:45:28
(UTC+00:00)

Cosmos 2082 Rocket - Pass Details

Date: 18 November 2025
Orbit: 834 x 851 km, 71.0° (Epoch: 04 December)

Event Time Altitude Azimuth Distance (km) Brightness Sun altitude
Rises 17:29:53 0° 327° (NNW) 3,394 5.7 -16.6°
Reaches altitude 10° 17:32:20 10° 325° (NW) 2,456 4.9 -16.9°
Maximum altitude 17:37:56 71° 243° (WSW) 884 2.4 -17.8°
Drops below altitude 10° 17:43:30 10° 161° (SSE) 2,442 4.5 -18.6°
Sets 17:45:56 0° 159° (SSE) 3,374 5.2 -19.0°
